Location: Baumgartsau
(48.4586°N, 14.0864°E)
Time: 07:34:49
(UTC+00:00)

SL-16 R/B - Pass Details

Date: 09 April 2020
Orbit: 842 x 846 km, 71.0° (Epoch: 02 June)

Event Time Altitude Azimuth Distance (km) Brightness Sun altitude
Rises 19:45:10 0° 336° (NNW) 3,415 6.4 -18.6°
Reaches altitude 10° 19:49:04 10° 2° (N) 2,477 5.1 -19.1°
Maximum altitude 19:51:48 14° 31° (NNE) 2,234 4.5 -19.4°
Drops below altitude 10° 19:54:32 10° 60° (ENE) 2,474 4.4 -19.8°
Enters shadow 19:55:08 - 66° (ENE) 2,584 4.5 -19.9°
